Regional Weather Roundup
Issued by NWS Upton, NY

Current Version | Previous Version | Text Only | Print | Product List | Glossary On
Versions: 1 2 3 4 5 6 7 8 9 10 11 12 13 14 15 16 17 18 19 20 21 22 23 24 25 26 27 28 29 30 31 32 33 34 35 36 37 38 39 40 41 42 43 44 45 46 47 48 49 50
000
ASUS41 KOKX 170705
RWROKX

REGIONAL WEATHER ROUNDUP
NATIONAL WEATHER SERVICE NEW YORK NY
200 AM EST WED DEC 17 2014

NOTE: "FAIR" INDICATES FEW OR NO CLOUDS BELOW 12,000 FEET WITH NO
SIGNIFICANT WEATHER AND/OR OBSTRUCTIONS TO VISIBILITY.

NYZ071-072-176-178-NJZ106-104-170800-
NEW YORK CITY METRO AREA


CITY           SKY/WX    TMP DP  RH WIND       PRES   REMARKS
CENTRAL PARK   CLOUDY    46  43  89 VRB3      29.83F FOG
LAGUARDIA APRT CLOUDY    43  42  97 NE7       29.81F FOG
KENNEDY INTL   CLOUDY    47  44  90 N5        29.81F
NEWARK/LIBERTY CLOUDY    45  45 100 NW7       29.82S FOG
BRNX BOT. GARD   N/A     45  43  93 CALM      29.83S
TETERBORO      LGT RAIN  44  42  93 N5        29.81S FOG
$$

NYZ177-179-078>081-170800-
LONG ISLAND NEW YORK

CITY           SKY/WX    TMP DP  RH WIND       PRES   REMARKS
FARMINGDALE    CLOUDY    45  43  93 N7        29.80S FOG
ISLIP          LGT RAIN  45  43  93 N7        29.78F FOG
SHIRLEY        CLOUDY    46  44  93 N8        29.80R
WESTHAMPTON    LGT RAIN  46  44  93 N8        29.80S
MONTAUK POINT    N/A     47  45  93 NE9       29.80F
$$

NYZ052-065-067-170800-
HUDSON VALLEY

CITY           SKY/WX    TMP DP  RH WIND       PRES   REMARKS
WHITE PLAINS   FOG       44  42  93 CALM      29.79F VSB 3/4
NEWBURGH       NOT AVBL
MONTGOMERY     CLOUDY    40  39  97 CALM      29.82S FOG
POUGHKEEPSIE   LGT RAIN  41  39  93 CALM      29.82F FOG
ALBANY         FOG       37  35  92 E5        29.84F VSB 1/2 WCI  33
$$

NJZ001-105-106-008-010-013-015-019>022-104-170800-
NEW JERSEY

CITY           SKY/WX    TMP DP  RH WIND       PRES   REMARKS
NEWARK/LIBERTY CLOUDY    45  45 100 NW7       29.82S FOG
TETERBORO      LGT RAIN  44  42  93 N5        29.81S FOG
CALDWELL       CLOUDY    43  42  97 CALM      29.83R FOG
MORRISTOWN       N/A     46  43  87 CALM      29.82F FOG
SOMERVILLE     CLOUDY    45  43  93 CALM      29.81F FOG
SUSSEX         CLOUDY    40  40 100 CALM      29.83S FOG
ANDOVER          N/A     40  39  97 CALM      29.83S
TRENTON        FOG       44  43  96 NW5       29.82S VSB 1/2
MILLVILLE      CLOUDY    46  44  93 W8        29.85R FOG
ATLANTIC CITY  CLOUDY    47  44  90 W9        29.84R
WRIGHTSTOWN    CLOUDY    47  47 100 W8        29.81S
TOMS RIVER     CLOUDY    48  46  93 W12       29.83R
BELMAR         CLOUDY    48  43  81 W8        29.81S
$$

PAZ047>061-062-071-170800-
EASTERN PENNSYLVANIA

CITY           SKY/WX    TMP DP  RH WIND       PRES   REMARKS
PHILADELPHIA   CLOUDY    47  43  86 W9        29.86R
ALLENTOWN      FOG       43  41  93 NW3       29.84S VSB 1
SCRANTON       CLOUDY    43  41  93 W7        29.82S FOG
$$

CTZ002-004>006-009-010-012-RIZ004-006-007-MAZ004-011-015-170800-
SOUTHERN NEW ENGLAND
 IN CT

CITY           SKY/WX    TMP DP  RH WIND       PRES   REMARKS
BRADLEY INTL   LGT RAIN  38  35  89 N7        29.84F FOG     WCI  33
HARTFORD       RAIN      38  36  92 VRB6      29.84F FOG     WCI  33
DANBURY        CLOUDY    40  37  89 CALM      29.83S FOG
WTRBRY/OXFORD  CLOUDY    39  34  81 NE3       29.82F
BRIDGEPORT     LGT RAIN  42  41  96 N9        29.81S
MERIDEN        LGT RAIN  38  36  92 NW5       29.83F FOG     WCI  34
NEW HAVEN      RAIN      42  37  82 N10       29.81S
CHESTER        HVY RAIN  41  39  93 N6        29.80F
GROTON         LGT RAIN  41  41 100 N10       29.79F FOG
WILLIMANTIC    LGT RAIN  40  38  93 N7        29.83F FOG

 IN RI

CITY           SKY/WX    TMP DP  RH WIND       PRES   REMARKS
PROVIDENCE     CLOUDY    42  40  92 N9        29.83F FOG
BLOCK ISLAND   CLOUDY    45  41  87 NW6       29.81S
WESTERLY       LGT RAIN  44  43  96 NE6       29.81F FOG

 IN MA

CITY           SKY/WX    TMP DP  RH WIND       PRES   REMARKS
BOSTON         LGT RAIN  44  42  93 N6        29.88F FOG
WORCESTER      LGT RAIN  35  35 100 N9        29.83F VSB 1   WCI  28
WESTFIELD      LGT RAIN  37  35  92 N5        29.86S FOG     WCI  33
PROVINCETOWN   CLOUDY    48  46  93 E8        29.87F
NANTUCKET      LGT RAIN  51  49  92 E12       29.83F
$$

ANZ330-335-338-340-345-350-353-355-170800-
COASTAL MARINE OBSERVATIONS


STATION/POSITION TIME  SKY/WX   TEMP    WIND        PRES    VSBY  WAVE
                                AIR SEA DIR/SP/G                  HT/PER
                 (UTC)          (F)     (DEG/KT/KT) (MB)    (MI)  (FT/S)
NY HARB ENTRANCE 0700            47 48  360/  4/  6 1009.4          2/11
4S FIRE IS       0700               46                N/A           2/10
20S FIRE ISLAND  0600            50 50              1009.4          2/ 9
23SW MTP         0700                                 N/A           2/10
HUDSON CANYON    0700            53 56  270/ 16/ 19 1008.5          4/ 5
EXECUTION ROCKS  0700            43 42   80/  8/ 10   N/A
WESTERN LI SOUND 0700            44      80/  2/  4   N/A           1/ 4
CENTRAL LI SOUND 0700            43 45   30/ 12/ 14   N/A           1/ 3
EASTERN LI SOUND NOT AVBL
ROBBINS REEF     0700            44        CALM     1008.3
$$


>>>>>>>>>>>>>>>>>>>>>>>>>>>> KEY <<<<<<<<<<<<<<<<<<<<<<<<<<<
>                                                          <
>     SKY/WX - SKY CONDITION/PRESENT WEATHER               <
>     TMP    - TEMPERATURE IN FAHRENHEIT                   <
>     DP     - DEWPOINT IN FAHRENHEIT                      <
>     RH     - RELATIVE HUMIDITY IN PERCENT                <
>     WIND   - DIRECTION AND SPEED IN MPH                  <
>     PRES   - MEAN SEA LEVEL PRESSURE IN INCHES OF HG     <
>     WCI    - WIND CHILL INDEX                            <
>     VSB    - VISIBILITY IN MILES                         <
>     HX     - HEAT INDEX                                  <
>     TC     - TEMPERATURE IN CELSIUS                      <
>     VRB    - VARIABLE WIND DIRECTION                     <
>                                                          <
>>>>>>>>>>>>>>>>>>>>>>>>>>>> KEY <<<<<<<<<<<<<<<<<<<<<<<<<<<




USA.gov is the U.S. government's official web portal to all federal, state and local government web resources and services.